Regional Weather Roundup
Issued by NWS

Home | Current Version | Previous Version | Text Only | Print | Product List | Glossary Off
Versions: 1 2 3 4 5 6 7 8 9 10 11 12 13 14 15 16 17 18 19 20 21 22 23 24 25 26 27 28 29 30 31 32 33 34 35 36 37 38 39 40 41 42 43 44 45 46 47 48 49 50

000
ASUS44 KMEG 302210
RWRTN
TENNESSEE HOURLY STATE WEATHER ROUNDUP
NATIONAL WEATHER SERVICE MEMPHIS TN
400 PM CST FRI JAN 30 2015

TNZ002-004-019-021-049-052-054-088>092-302300-
WEST TENNESSEE

CITY           SKY/WX    TMP DP  RH WIND       PRES   REMARKS
MEMPHIS INTL   MOSUNNY   51  20  29 N9        30.43S
NWS MEMPHIS      N/A     50 N/A N/A MISG        N/A
JACKSON        SUNNY     48  21  34 N6        30.43R
DYERSBURG      SUNNY     45  18  33 NE7       30.47R
UNION CITY     SUNNY     43  21  42 N6        30.44S
PARIS          SUNNY     41  18  38 N6        30.44R
LEXINGTON      SUNNY     45  18  33 N6        30.41R
SAVANNAH       SUNNY     46  19  34 N8        30.41S
$$

TNZ008-025-027-028-033-062-065-066-302300-
NORTH MIDDLE TENNESSEE

CITY           SKY/WX    TMP DP  RH WIND       PRES   REMARKS
NASHVILLE      MOSUNNY   44  20  38 N8        30.43S
CLARKSVILLE    SUNNY     43  19  38 N7        30.44R
SMYRNA         SUNNY     44  20  38 N9        30.43S
COOKEVILLE     SUNNY     41  21  45 N6        30.37F
CROSSVILLE     SUNNY     38  18  44 N8        30.34S WCI  32
$$

TNZ061-075-076-078-094-096-097-302300-
SOUTH MIDDLE TENNESSEE

CITY           SKY/WX    TMP DP  RH WIND       PRES   REMARKS
FAYETTEVILLE   SUNNY     43  19  39 MISG      30.37S
TULLAHOMA      SUNNY     41  18  38 NW12      30.38S
WINCHESTER     SUNNY     43  19  39 N9        30.38S
MCMINNVILLE    SUNNY     41  19  42 N10       30.38S
COLUMBIA       SUNNY     45  19  36 N7        30.39S
SHELBYVILLE    SUNNY     43  21  42 N9        30.41S
$$

TNZ017-018-042-046-047-302300-
NORTHEAST TENNESSEE

CITY           SKY/WX    TMP DP  RH WIND       PRES   REMARKS
TRI CITIES     PTCLDY    37  15  40 N13       30.31R WCI  29
ELIZABETHTON   CLEAR     34  14  44 VRB6      30.28R WCI  29
$$

TNZ012-013-036-069-073-074-302300-
CENTRAL EAST TENNESSEE

CITY           SKY/WX    TMP DP  RH WIND       PRES   REMARKS
KNOXVILLE      MOSUNNY   41  18  39 NE5       30.36R
OAK RIDGE      SUNNY     44  17  33 N7        30.37R
GATLINBURG     CLEAR     39  18  41 NW5       30.36R
MORRISTOWN     CLEAR     37  18  44 NW8       30.34R WCI  31
$$

TNZ083-085-099-302300-
SOUTHEAST TENNESSEE

CITY           SKY/WX    TMP DP  RH WIND       PRES   REMARKS
CHATTANOOGA    MOSUNNY   47  19  33 NW15G21   30.36R
$$

SKY/WX REPORTED AS FAIR MEANS FEW OR NO CLOUDS BELOW
12 THOUSAND FEET.



USA.gov is the U.S. government's official web portal to all federal, state and local government web resources and services.